This is the latest recevied weather packets stored in our database for station/object WE0DX-1. If no packets are shown the sender has not sent any weather packets the latest 10 day(s).
| Time | Temp. | Humidity | Pressure | Rain* | Wind** | Luminosity | Snow |
|---|---|---|---|---|---|---|---|
| 1777654212 | 16.11° C | 40% | 1018.1 hPa | 0 mm | - | 853 W/m² | - |
| 1777653909 | 16.11° C | 38% | 1018.2 hPa | 0 mm | - | 869 W/m² | - |
| 1777653606 | 15.56° C | 37% | 1018.4 hPa | 0 mm | - | 881 W/m² | - |
| 1777653302 | 15.56° C | 39% | 1018.3 hPa | 0 mm | - | 863 W/m² | - |
| 1777652998 | 15.56° C | 40% | 1018.1 hPa | 0 mm | - | 868 W/m² | - |
| 1777652695 | 15.56° C | 38% | 1018.3 hPa | 0 mm | - | 871 W/m² | - |
| 1777652392 | 15.56° C | 39% | 1018.2 hPa | 0 mm | - | 865 W/m² | - |
| 1777652089 | 15.56° C | 37% | 1018.4 hPa | 0 mm | - | 835 W/m² | - |
| 1777651786 | 15.56° C | 38% | 1018.3 hPa | 0 mm | - | 807 W/m² | - |
| 1777651482 | 15.56° C | 41% | 1018.3 hPa | 0 mm | - | 779 W/m² | - |
| 1777651180 | 15° C | 40% | 1018.3 hPa | 0 mm | - | 728 W/m² | - |
| 1777650877 | 14.44° C | 41% | 1018.3 hPa | 0 mm | - | 750 W/m² | - |
| 1777650574 | 14.44° C | 41% | 1018.4 hPa | 0 mm | - | 775 W/m² | - |
| 1777650271 | 15° C | 40% | 1018.3 hPa | 0 mm | - | 771 W/m² | - |
| 1777649968 | 15.56° C | 44% | 1018.4 hPa | 0 mm | - | 733 W/m² | - |
| 1777649666 | 15° C | 39% | 1018.2 hPa | 0 mm | - | 701 W/m² | - |
| 1777649361 | 15° C | 43% | 1018.3 hPa | 0 mm | - | 656 W/m² | - |
| 1777649059 | 15° C | 44% | 1018.1 hPa | 0 mm | - | 621 W/m² | - |
| 1777648756 | 13.89° C | 45% | 1018.1 hPa | 0 mm | - | 650 W/m² | - |
| 1777648452 | 13.89° C | 44% | 1018.3 hPa | 0 mm | - | 639 W/m² | - |
| 1777648149 | 13.89° C | 48% | 1018.3 hPa | 0 mm | - | 579 W/m² | - |
| 1777647845 | 13.89° C | 46% | 1018.1 hPa | 0 mm | - | 553 W/m² | - |
| 1777647541 | 13.89° C | 51% | 1018.2 hPa | 0 mm | - | 531 W/m² | - |
| 1777647238 | 13.33° C | 51% | 1018.3 hPa | 0 mm | - | 502 W/m² | - |
| 1777646935 | 12.78° C | 53% | 1018.2 hPa | 0 mm | - | 469 W/m² | - |
* Rain latest hour (hover to see other rain measurements)
** Current wind speed in m/s (hover to see current wind gust speed)